Time,TemperatureF,DewpointF,PressureIn,WindDirection,WindDirectionDegrees,WindSpeedMPH,WindSpeedGustMPH,Humidity,HourlyPrecipIn,Conditions,Clouds,dailyrainin,SoftwareType,DateUTC
2013-02-07 00:01:00,39.7,36.0,30.10,SE,137,0.0,0.0,87,0.00,,,0.00,weatherlink.com 1.10,2013-02-07 05:01:00,
2013-02-07 00:31:00,40.1,37.0,30.10,SE,137,0.0,0.0,87,0.00,,,0.00,weatherlink.com 1.10,2013-02-07 05:31:00,
2013-02-07 00:48:00,40.3,37.0,30.09,SE,137,0.0,0.0,88,0.00,,,0.00,weatherlink.com 1.10,2013-02-07 05:48:00,
2013-02-07 01:02:00,40.0,37.0,30.09,SE,137,0.0,0.0,87,0.00,,,0.00,weatherlink.com 1.10,2013-02-07 06:02:00,
2013-02-07 01:17:00,39.7,36.0,30.09,SE,137,0.0,0.0,87,0.00,,,0.00,weatherlink.com 1.10,2013-02-07 06:17:00,
2013-02-07 01:31:00,39.4,36.0,30.09,SE,137,0.0,0.0,88,0.00,,,0.00,weatherlink.com 1.10,2013-02-07 06:31:00,
2013-02-07 02:02:00,39.6,37.0,30.09,SE,137,0.0,0.0,89,0.00,,,0.00,weatherlink.com 1.10,2013-02-07 07:02:00,
2013-02-07 02:17:00,39.8,37.0,30.10,SE,137,0.0,0.0,89,0.00,,,0.00,weatherlink.com 1.10,2013-02-07 07:17:00,
2013-02-07 02:31:00,39.9,37.0,30.10,SE,137,0.0,0.0,89,0.00,,,0.00,weatherlink.com 1.10,2013-02-07 07:31:00,
2013-02-07 02:47:00,40.1,37.0,30.10,SE,137,0.0,0.0,88,0.00,,,0.00,weatherlink.com 1.10,2013-02-07 07:47:00,
2013-02-07 03:17:00,40.5,38.0,30.11,SE,137,0.0,0.0,89,0.00,,,0.00,weatherlink.com 1.10,2013-02-07 08:17:00,
2013-02-07 03:47:00,40.8,38.0,30.11,SE,137,0.0,0.0,88,0.00,,,0.00,weatherlink.com 1.10,2013-02-07 08:47:00,
2013-02-07 04:02:00,41.0,38.0,30.11,SE,137,0.0,0.0,88,0.00,,,0.00,weatherlink.com 1.10,2013-02-07 09:02:00,
2013-02-07 04:47:00,41.6,38.0,30.09,SE,137,0.0,1.0,88,0.00,,,0.00,weatherlink.com 1.10,2013-02-07 09:47:00,
2013-02-07 05:02:00,41.6,38.0,30.09,SE,136,0.0,0.0,88,0.00,,,0.00,weatherlink.com 1.10,2013-02-07 10:02:00,
2013-02-07 05:17:00,41.5,38.0,30.09,SE,137,0.0,0.0,88,0.00,,,0.00,weatherlink.com 1.10,2013-02-07 10:17:00,
2013-02-07 05:32:00,41.6,39.0,30.09,SE,137,0.0,1.0,89,0.00,,,0.00,weatherlink.com 1.10,2013-02-07 10:32:00,
2013-02-07 05:47:00,42.0,39.0,30.09,SE,137,0.0,1.0,88,0.00,,,0.00,weatherlink.com 1.10,2013-02-07 10:47:00,
2013-02-07 06:02:00,42.1,39.0,30.09,SE,137,0.0,1.0,88,0.00,,,0.00,weatherlink.com 1.10,2013-02-07 11:02:00,
2013-02-07 06:17:00,42.0,39.0,30.09,SE,137,0.0,2.0,88,0.00,,,0.00,weatherlink.com 1.10,2013-02-07 11:17:00,
2013-02-07 06:32:00,42.2,39.0,30.10,SE,137,0.0,0.0,87,0.00,,,0.00,weatherlink.com 1.10,2013-02-07 11:32:00,
2013-02-07 06:47:00,42.1,39.0,30.10,SE,137,0.0,0.0,88,0.00,,,0.00,weatherlink.com 1.10,2013-02-07 11:47:00,
2013-02-07 07:02:00,41.9,39.0,30.09,SE,137,0.0,0.0,88,0.00,,,0.00,weatherlink.com 1.10,2013-02-07 12:02:00,
2013-02-07 07:17:00,41.7,39.0,30.09,SE,137,0.0,0.0,89,0.00,,,0.00,weatherlink.com 1.10,2013-02-07 12:17:00,
2013-02-07 07:32:00,41.6,38.0,30.09,SE,137,0.0,1.0,88,0.00,,,0.00,weatherlink.com 1.10,2013-02-07 12:32:00,
2013-02-07 07:47:00,41.7,38.0,30.08,SE,137,0.0,0.0,87,0.00,,,0.00,weatherlink.com 1.10,2013-02-07 12:47:00,
2013-02-07 08:32:00,42.4,39.0,30.08,SE,124,0.0,0.0,87,0.00,,,0.00,weatherlink.com 1.10,2013-02-07 13:32:00,
2013-02-07 09:02:00,43.0,40.0,30.07,WNW,286,0.0,1.0,88,0.00,,,0.00,weatherlink.com 1.10,2013-02-07 14:02:00,
2013-02-07 09:17:00,43.8,40.0,30.07,WNW,286,0.0,1.0,87,0.00,,,0.00,weatherlink.com 1.10,2013-02-07 14:17:00,
2013-02-07 09:47:00,45.6,39.0,30.07,SSE,156,1.0,3.0,77,0.00,,,0.00,weatherlink.com 1.10,2013-02-07 14:47:00,
2013-02-07 10:03:00,46.2,38.0,30.07,SSE,156,0.0,2.0,74,0.00,,,0.00,weatherlink.com 1.10,2013-02-07 15:03:00,
2013-02-07 10:32:00,47.4,38.0,30.07,SSE,155,0.0,2.0,69,0.00,,,0.00,weatherlink.com 1.10,2013-02-07 15:32:00,
2013-02-07 11:02:00,48.3,37.0,30.05,SE,138,0.0,3.0,65,0.00,,,0.00,weatherlink.com 1.10,2013-02-07 16:02:00,
2013-02-07 11:18:00,48.8,37.0,30.05,SE,134,0.0,4.0,64,0.00,,,0.00,weatherlink.com 1.10,2013-02-07 16:18:00,
2013-02-07 11:33:00,49.2,37.0,30.05,ESE,122,1.0,4.0,62,0.00,,,0.00,weatherlink.com 1.10,2013-02-07 16:33:00,
2013-02-07 11:48:00,49.5,36.0,30.04,ESE,123,0.0,1.0,61,0.00,,,0.00,weatherlink.com 1.10,2013-02-07 16:48:00,
2013-02-07 12:03:00,49.9,37.0,30.04,ESE,123,0.0,1.0,62,0.00,,,0.00,weatherlink.com 1.10,2013-02-07 17:03:00,
2013-02-07 12:18:00,50.3,37.0,30.03,ESE,123,0.0,1.0,61,0.00,,,0.00,weatherlink.com 1.10,2013-02-07 17:18:00,
2013-02-07 12:33:00,50.7,38.0,30.01,ESE,123,0.0,2.0,62,0.00,,,0.00,weatherlink.com 1.10,2013-02-07 17:33:00,
2013-02-07 13:03:00,51.3,38.0,30.00,SSE,167,1.0,2.0,61,0.00,,,0.00,weatherlink.com 1.10,2013-02-07 18:03:00,
2013-02-07 13:18:00,51.3,39.0,29.99,WSW,247,0.0,2.0,62,0.00,,,0.00,weatherlink.com 1.10,2013-02-07 18:18:00,
2013-02-07 13:48:00,52.1,38.0,29.98,SSW,206,0.0,3.0,60,0.00,,,0.00,weatherlink.com 1.10,2013-02-07 18:48:00,
2013-02-07 14:18:00,52.5,39.0,29.97,SSW,203,0.0,1.0,61,0.00,,,0.00,weatherlink.com 1.10,2013-02-07 19:18:00,
2013-02-07 14:33:00,52.5,38.0,29.96,SSW,204,0.0,0.0,58,0.00,,,0.00,weatherlink.com 1.10,2013-02-07 19:33:00,
2013-02-07 14:48:00,52.7,39.0,29.96,SSW,203,0.0,1.0,61,0.00,,,0.00,weatherlink.com 1.10,2013-02-07 19:48:00,
2013-02-07 15:18:00,52.6,40.0,29.95,South,188,0.0,0.0,62,0.00,,,0.00,weatherlink.com 1.10,2013-02-07 20:18:00,
2013-02-07 15:33:00,52.6,40.0,29.95,South,188,0.0,0.0,63,0.00,,,0.00,weatherlink.com 1.10,2013-02-07 20:33:00,
2013-02-07 15:48:00,52.7,39.0,29.95,South,188,0.0,0.0,61,0.00,,,0.00,weatherlink.com 1.10,2013-02-07 20:48:00,
2013-02-07 16:03:00,52.8,40.0,29.94,South,188,0.0,1.0,62,0.00,,,0.00,weatherlink.com 1.10,2013-02-07 21:03:00,
2013-02-07 16:18:00,52.8,41.0,29.94,South,188,0.0,0.0,64,0.00,,,0.00,weatherlink.com 1.10,2013-02-07 21:18:00,
2013-02-07 16:48:00,52.5,41.0,29.94,South,187,0.0,0.0,64,0.00,,,0.00,weatherlink.com 1.10,2013-02-07 21:48:00,
2013-02-07 17:03:00,52.4,41.0,29.94,South,187,0.0,1.0,65,0.00,,,0.00,weatherlink.com 1.10,2013-02-07 22:03:00,
2013-02-07 17:18:00,52.3,42.0,29.94,South,186,0.0,2.0,69,0.00,,,0.00,weatherlink.com 1.10,2013-02-07 22:18:00,
2013-02-07 17:34:00,51.5,44.0,29.94,South,186,0.0,1.0,76,0.00,,,0.00,weatherlink.com 1.10,2013-02-07 22:34:00,
2013-02-07 17:48:00,50.4,44.0,29.94,South,186,0.0,0.0,80,0.00,,,0.00,weatherlink.com 1.10,2013-02-07 22:48:00,
2013-02-07 18:03:00,49.8,45.0,29.94,South,186,0.0,0.0,83,0.00,,,0.00,weatherlink.com 1.10,2013-02-07 23:03:00,
2013-02-07 18:18:00,49.2,45.0,29.94,South,186,0.0,0.0,85,0.00,,,0.00,weatherlink.com 1.10,2013-02-07 23:18:00,
2013-02-07 18:48:00,48.6,45.0,29.94,South,186,0.0,0.0,86,0.00,,,0.00,weatherlink.com 1.10,2013-02-07 23:48:00,
2013-02-07 19:04:00,48.3,45.0,29.94,South,186,0.0,0.0,87,0.00,,,0.00,weatherlink.com 1.10,2013-02-08 00:04:00,
2013-02-07 19:19:00,47.9,45.0,29.94,South,186,0.0,0.0,89,0.00,,,0.00,weatherlink.com 1.10,2013-02-08 00:19:00,
2013-02-07 19:48:00,47.4,45.0,29.94,South,186,0.0,0.0,91,0.00,,,0.00,weatherlink.com 1.10,2013-02-08 00:48:00,
2013-02-07 20:03:00,47.1,45.0,29.94,South,186,0.0,0.0,91,0.00,,,0.00,weatherlink.com 1.10,2013-02-08 01:03:00,
2013-02-07 20:18:00,47.1,45.0,29.94,South,186,0.0,0.0,92,0.00,,,0.00,weatherlink.com 1.10,2013-02-08 01:18:00,
2013-02-07 20:33:00,47.2,45.0,29.94,South,186,0.0,0.0,92,0.00,,,0.00,weatherlink.com 1.10,2013-02-08 01:33:00,
2013-02-07 20:48:00,47.2,45.0,29.93,South,186,0.0,0.0,92,0.00,,,0.00,weatherlink.com 1.10,2013-02-08 01:48:00,
2013-02-07 21:03:00,47.3,45.0,29.93,South,186,0.0,1.0,91,0.00,,,0.00,weatherlink.com 1.10,2013-02-08 02:03:00,
2013-02-07 21:18:00,47.2,45.0,29.93,South,186,0.0,0.0,91,0.00,,,0.00,weatherlink.com 1.10,2013-02-08 02:18:00,
2013-02-07 21:33:00,47.1,45.0,29.93,South,186,0.0,0.0,91,0.00,,,0.00,weatherlink.com 1.10,2013-02-08 02:33:00,
2013-02-07 21:49:00,47.0,45.0,29.93,South,186,0.0,0.0,91,0.00,,,0.00,weatherlink.com 1.10,2013-02-08 02:49:00,
2013-02-07 22:04:00,47.0,45.0,29.93,South,186,0.0,0.0,91,0.00,,,0.00,weatherlink.com 1.10,2013-02-08 03:04:00,
2013-02-07 22:33:00,46.9,44.0,29.93,South,186,0.0,0.0,90,0.00,,,0.00,weatherlink.com 1.10,2013-02-08 03:33:00,
2013-02-07 23:03:00,46.8,44.0,29.93,South,186,0.0,0.0,91,0.00,,,0.00,weatherlink.com 1.10,2013-02-08 04:03:00,
2013-02-07 23:18:00,46.7,45.0,29.93,South,186,0.0,0.0,92,0.00,,,0.00,weatherlink.com 1.10,2013-02-08 04:18:00,
2013-02-07 23:34:00,46.6,44.0,29.93,South,186,0.0,0.0,91,0.00,,,0.00,weatherlink.com 1.10,2013-02-08 04:34:00,
2013-02-07 23:48:00,46.6,44.0,29.92,South,186,0.0,0.0,92,0.00,,,0.00,weatherlink.com 1.10,2013-02-08 04:48:00,